Change the Weather History Date:

Thursday, April 25, 2013

  Actual Average Record
Temperature  
Mean Temperature 57 °F 61 °F  
Max Temperature 70 °F 73 °F 95 °F (1960)
Min Temperature 44 °F 49 °F 33 °F (1949)
Degree Days  
Heating Degree Days 8 5  
Month to date heating degree days 180 207  
Since 1 July heating degree days 3635 3718  
Cooling Degree Days 0 1  
Month to date cooling degree days 46 24  
Year to date cooling degree days 48 27  
Growing Degree Days 8 (Base 50)    
Moisture  
Dew Point 38 °F    
Average Humidity 50    
Maximum Humidity 76    
Minimum Humidity 24    
Precipitation  
Precipitation 0.00 in 0.12 in 2.17 in (1952)
Month to date precipitation 1.96 2.93  
Year to date precipitation 14.32 13.47  
Snow  
Snow 0.00 in - - ()
Month to date snowfall 0.0  
Since 1 July snowfall 1.7  
Snow Depth 0.00 in    
Sea Level Pressure  
Sea Level Pressure 30.19 in    
Wind  
Wind Speed 5 mph (NNW)    
Max Wind Speed 20 mph    
Max Gust Speed 28 mph    
Visibility 10 miles    
Events      
T = Trace of Precipitation, MM = Missing Value Source: NWS Daily Summary

Daily Weather History Graph

Daily Weather History Graph

Search for Another Location

Airport or City:

Trip Planner

Search our weather history database for the weather conditions in past years. The results will help you decide how hot, cold, wet, or windy it might be!

Date:

Astronomy

Apr. 25, 2013 Rise Set
Actual Time 6:30 AM EDT 8:00 PM EDT
Civil Twilight 6:03 AM EDT 8:27 PM EDT
Nautical Twilight 5:30 AM EDT 9:00 PM EDT
Astronomical Twilight 4:56 AM EDT 9:35 PM EDT
Moon 8:10 PM EDT (4/25) 6:12 AM EDT (4/25)
Length of Visible Light 14h 24m
Length of Day
13h 30m
Full, 100% of the Moon is Illuminated
Apr 25
Full
Apr 25
Full
May 2
Last Quarter
May 9
New
May 18
First Quarter

Hourly Weather History & Observations

Time (EDT) Temp. Dew Point Humidity Pressure Visibility Wind Dir Wind Speed Gust Speed Precip Events Conditions
12:53 AM 64.0 °F 52.0 °F 65% 30.02 in 10.0 mi NW 10.4 mph 21.9 mph N/A   Overcast
1:53 AM 62.1 °F 46.9 °F 58% 30.04 in 10.0 mi NW 12.7 mph 18.4 mph N/A   Overcast
2:53 AM 59.0 °F 44.1 °F 58% 30.05 in 10.0 mi NNW 10.4 mph 18.4 mph N/A   Overcast
3:53 AM 55.0 °F 41.0 °F 59% 30.10 in 10.0 mi NW 6.9 mph - N/A   Overcast
4:53 AM 53.1 °F 37.0 °F 55% 30.13 in 10.0 mi NNW 12.7 mph - N/A   Mostly Cloudy
5:53 AM 51.1 °F 36.0 °F 56% 30.17 in 10.0 mi NNW 6.9 mph - N/A   Mostly Cloudy
6:53 AM 48.9 °F 34.0 °F 56% 30.20 in 10.0 mi North 8.1 mph - N/A   Scattered Clouds
7:53 AM 50.0 °F 32.0 °F 50% 30.23 in 10.0 mi NNW 6.9 mph - N/A   Clear
8:53 AM 52.0 °F 34.0 °F 50% 30.25 in 10.0 mi Variable 5.8 mph - N/A   Clear
9:53 AM 55.0 °F 35.1 °F 47% 30.25 in 10.0 mi North 9.2 mph 17.3 mph N/A   Clear
10:53 AM 55.9 °F 35.1 °F 45% 30.25 in 10.0 mi Calm Calm - N/A   Clear
11:53 AM 60.1 °F 37.9 °F 44% 30.25 in 10.0 mi Variable 5.8 mph - N/A   Clear
12:53 PM 62.1 °F 37.0 °F 39% 30.24 in 10.0 mi ESE 3.5 mph - N/A   Clear
1:53 PM 64.9 °F 37.0 °F 36% 30.23 in 10.0 mi North 8.1 mph - N/A   Clear
2:53 PM 66.0 °F 37.0 °F 34% 30.22 in 10.0 mi Calm Calm - N/A   Clear
3:53 PM 66.9 °F 35.1 °F 31% 30.20 in 10.0 mi Variable 3.5 mph - N/A   Clear
4:53 PM 69.1 °F 34.0 °F 27% 30.18 in 10.0 mi NNE 3.5 mph - N/A   Clear
5:53 PM 68.0 °F 30.9 °F 25% 30.18 in 10.0 mi Variable 4.6 mph - N/A   Clear
6:53 PM 68.0 °F 34.0 °F 28% 30.18 in 10.0 mi Calm Calm - N/A   Clear
7:53 PM 57.9 °F 41.0 °F 53% 30.20 in 10.0 mi East 3.5 mph - N/A   Clear
8:53 PM 53.1 °F 39.9 °F 61% 30.22 in 10.0 mi Calm Calm - N/A   Clear
9:53 PM 50.0 °F 41.0 °F 71% 30.26 in 10.0 mi Calm Calm - N/A   Clear
10:53 PM 46.0 °F 39.0 °F 76% 30.27 in 10.0 mi Calm Calm - N/A   Clear
11:53 PM 44.1 °F 37.9 °F 79% 30.27 in 10.0 mi Calm Calm - N/A   Clear